Weather History for Drummond Island, MI

Change the Weather History Date:

Wednesday, August 21, 2013

  Actual Average (KCIU) Record (KCIU)
Temperature  
Mean Temperature 74 °F -  
Max Temperature 86 °F 74 °F 82 °F (2013)
Min Temperature 63 °F 47 °F 37 °F (1992)
Cooling Degree Days 10    
Growing Degree Days 24 (Base 50)    
Moisture  
Dew Point 65 °F    
Average Humidity 71    
Maximum Humidity 96    
Minimum Humidity 50    
Precipitation  
Precipitation 0.00 in - - ()
Sea Level Pressure  
Sea Level Pressure 29.94 in    
Wind  
Wind Speed 6 mph (SW)    
Max Wind Speed 13 mph    
Max Gust Speed 23 mph    
Visibility 10 miles    
Events      
Averages and records for this station are not official NWS values.
T = Trace of Precipitation, MM = Missing Value Source: NWS Daily Summary

Daily Weather History Graph

Daily Weather History Graph

Search for Another Location

Airport:

Trip Planner

Search our weather history database for the weather conditions in past years. The results will help you decide how hot, cold, wet, or windy it might be!

Date:

Astronomy

Aug. 21, 2013 Rise Set
Actual Time 6:42 AM EDT 8:32 PM EDT
Civil Twilight 6:10 AM EDT 9:04 PM EDT
Nautical Twilight 5:31 AM EDT 9:43 PM EDT
Astronomical Twilight 4:48 AM EDT 10:26 PM EDT
Moon 8:33 PM EDT (8/21) 7:26 AM EDT (8/21)
Length of Visible Light 14h 54m
Length of Day
13h 50m
Full, 100% of the Moon is Illuminated
Aug 21
Full
Aug 28
Last Quarter
Sep 5
New
Sep 12
First Quarter
Sep 19
Full

Hourly Weather History & Observations

Time (EDT) Temp. Heat Index Dew Point Humidity Pressure Visibility Wind Dir Wind Speed Gust Speed Precip Events Conditions
12:15 AM 63.7 °F - 62.4 °F 96% 30.01 in 7.0 mi South 3.5 mph - N/A   Clear
12:35 AM 65.1 °F - 62.6 °F 92% 30.01 in 10.0 mi SSE 4.6 mph - N/A   Clear
12:55 AM 66.2 °F - 63.0 °F 89% 30.02 in 10.0 mi SSE 3.5 mph - N/A   Clear
1:15 AM 67.3 °F - 64.0 °F 89% 30.01 in 10.0 mi SSE 3.5 mph - N/A   Clear
1:35 AM 66.4 °F - 63.5 °F 90% 30.01 in 10.0 mi SSE 4.6 mph - N/A   Scattered Clouds
1:55 AM 67.1 °F - 63.5 °F 88% 30.00 in 10.0 mi Calm Calm - N/A   Scattered Clouds
2:14 AM 68.9 °F - 63.0 °F 81% 30.00 in 10.0 mi South 4.6 mph - N/A   Clear
2:35 AM 68.2 °F - 62.6 °F 82% 30.00 in 10.0 mi South 4.6 mph - N/A   Clear
2:55 AM 67.8 °F - 62.6 °F 83% 29.99 in 10.0 mi South 4.6 mph - N/A   Clear
3:14 AM 67.3 °F - 62.6 °F 85% 29.99 in 10.0 mi South 4.6 mph - N/A   Clear
3:35 AM 67.3 °F - 62.1 °F 83% 29.99 in 10.0 mi South 4.6 mph - N/A   Clear
3:55 AM 67.3 °F - 61.7 °F 82% 29.98 in 10.0 mi South 5.8 mph - N/A   Clear
4:15 AM 66.9 °F - 61.7 °F 83% 29.99 in 10.0 mi South 5.8 mph - N/A   Scattered Clouds
4:35 AM 67.1 °F - 61.7 °F 83% 29.98 in 10.0 mi South 5.8 mph - N/A   Mostly Cloudy
4:55 AM 66.7 °F - 61.7 °F 84% 29.98 in 10.0 mi South 5.8 mph - N/A   Scattered Clouds
5:15 AM 66.6 °F - 61.9 °F 85% 29.98 in 10.0 mi South 6.9 mph - N/A   Scattered Clouds
5:35 AM 67.1 °F - 61.9 °F 83% 29.98 in 10.0 mi South 8.1 mph - N/A   Scattered Clouds
5:55 AM 67.1 °F - 61.9 °F 83% 29.98 in 10.0 mi South 8.1 mph - N/A   Scattered Clouds
6:15 AM 67.1 °F - 61.9 °F 83% 29.99 in 10.0 mi South 5.8 mph - N/A   Scattered Clouds
6:35 AM 67.1 °F - 61.9 °F 83% 29.98 in 10.0 mi South 6.9 mph - N/A   Scattered Clouds
6:54 AM 66.4 °F - 61.9 °F 85% 29.98 in 10.0 mi South 8.1 mph - N/A   Clear
7:15 AM 66.9 °F - 62.1 °F 84% 29.97 in 10.0 mi South 8.1 mph - N/A   Clear
7:35 AM 67.3 °F - 61.7 °F 82% 29.97 in 10.0 mi South 9.2 mph - N/A   Clear
7:54 AM 68.0 °F - 61.9 °F 81% 29.98 in 10.0 mi SSW 10.4 mph 16.1 mph N/A   Clear
8:15 AM 68.9 °F - 62.1 °F 79% 29.98 in 10.0 mi SSW 10.4 mph - N/A   Clear
8:34 AM 70.2 °F - 62.6 °F 77% 29.99 in 10.0 mi SSW 9.2 mph - N/A   Clear
8:55 AM 71.6 °F - 63.0 °F 74% 29.99 in 10.0 mi SSW 9.2 mph - N/A   Clear
9:15 AM 73.4 °F - 63.5 °F 71% 29.99 in 10.0 mi SSW 8.1 mph - N/A   Scattered Clouds
9:34 AM 73.6 °F - 63.5 °F 71% 29.99 in 10.0 mi SSW 11.5 mph - N/A   Scattered Clouds
9:55 AM 74.3 °F - 63.9 °F 70% 29.99 in 10.0 mi SSW 11.5 mph 17.3 mph N/A   Scattered Clouds
10:15 AM 74.8 °F - 64.2 °F 69% 29.98 in 10.0 mi SSW 9.2 mph - N/A   Mostly Cloudy
10:35 AM 76.1 °F - 64.6 °F 67% 29.98 in 10.0 mi SSW 9.2 mph - N/A   Scattered Clouds
10:55 AM 76.3 °F - 64.4 °F 67% 29.98 in 10.0 mi SSW 10.4 mph - N/A   Mostly Cloudy
11:15 AM 77.7 °F - 65.3 °F 65% 29.98 in 10.0 mi SW 12.7 mph 17.3 mph N/A   Scattered Clouds
11:35 AM 79.3 °F - 65.3 °F 62% 29.98 in 10.0 mi SSW 10.4 mph - N/A   Scattered Clouds
11:55 AM 80.4 °F 82.4 °F 65.8 °F 61% 29.98 in 10.0 mi SSW 8.1 mph 18.4 mph N/A   Clear
12:14 PM 80.1 °F 82.0 °F 65.5 °F 61% 29.96 in 10.0 mi SSW 9.2 mph 20.7 mph N/A   Clear
12:35 PM 81.9 °F 83.9 °F 65.7 °F 58% 29.96 in 5.0 mi SSW 12.7 mph - N/A   Haze
12:55 PM 82.0 °F 83.9 °F 65.7 °F 57% 29.95 in 10.0 mi SSW 12.7 mph 19.6 mph N/A   Clear
1:14 PM 82.6 °F 84.7 °F 66.0 °F 57% 29.94 in 10.0 mi SSW 11.5 mph 19.6 mph N/A   Clear
1:35 PM 83.5 °F 85.3 °F 65.3 °F 54% 29.94 in 10.0 mi SW 10.4 mph 23.0 mph N/A   Clear
1:55 PM 84.4 °F 86.8 °F 66.4 °F 55% 29.93 in 10.0 mi SW 11.5 mph 17.3 mph N/A   Clear
2:15 PM 84.4 °F 86.6 °F 66.0 °F 54% 29.93 in 10.0 mi SW 9.2 mph 18.4 mph N/A   Clear
2:35 PM 85.1 °F 87.4 °F 66.0 °F 53% 29.92 in 10.0 mi SSW 11.5 mph 16.1 mph N/A   Clear
2:55 PM 85.3 °F 87.6 °F 66.2 °F 53% 29.91 in 10.0 mi SSW 9.2 mph 18.4 mph N/A   Clear
3:15 PM 85.3 °F 87.4 °F 65.8 °F 52% 29.92 in 10.0 mi SSW 11.5 mph - N/A   Clear
3:35 PM 86.0 °F 88.8 °F 66.9 °F 53% 29.91 in 10.0 mi SW 5.8 mph - N/A   Clear
3:55 PM 86.4 °F 89.4 °F 67.3 °F 53% 29.91 in 10.0 mi SW 6.9 mph - N/A   Clear
4:15 PM 86.9 °F 89.3 °F 66.0 °F 50% 29.90 in 10.0 mi SW 9.2 mph - N/A   Clear
4:35 PM 83.1 °F 85.2 °F 65.8 °F 56% 29.90 in 10.0 mi SSW 6.9 mph - N/A   Clear
4:54 PM 81.7 °F 83.8 °F 66.2 °F 59% 29.90 in 10.0 mi SW 5.8 mph - N/A   Clear
5:15 PM 82.2 °F 84.6 °F 66.6 °F 59% 29.89 in 10.0 mi SSW 5.8 mph - N/A   Clear
5:35 PM 84.6 °F 87.4 °F 67.5 °F 56% 29.88 in 10.0 mi West 4.6 mph - N/A   Clear
5:55 PM 84.2 °F 87.1 °F 67.3 °F 57% 29.88 in 10.0 mi West 4.6 mph - N/A   Clear
6:15 PM 83.8 °F 86.7 °F 67.6 °F 58% 29.88 in 10.0 mi West 3.5 mph - N/A   Clear
6:35 PM 82.9 °F 85.8 °F 67.8 °F 60% 29.87 in 10.0 mi WSW 3.5 mph - N/A   Clear
6:55 PM 81.7 °F 84.5 °F 68.0 °F 63% 29.88 in 10.0 mi West 4.6 mph - N/A   Scattered Clouds
7:15 PM 80.6 °F 83.2 °F 67.8 °F 65% 29.88 in 10.0 mi WNW 3.5 mph - N/A   Mostly Cloudy
7:35 PM 78.8 °F - 67.3 °F 68% 29.88 in 10.0 mi WNW 3.5 mph - N/A   Mostly Cloudy
7:55 PM 78.1 °F - 66.9 °F 68% 29.87 in 10.0 mi Calm Calm - N/A   Scattered Clouds
8:15 PM 77.0 °F - 67.1 °F 71% 29.89 in 10.0 mi WNW 3.5 mph - N/A   Scattered Clouds
8:35 PM 77.2 °F - 66.0 °F 68% 29.90 in 10.0 mi West 4.6 mph - N/A   Overcast
8:55 PM 76.6 °F - 65.7 °F 69% 29.89 in 10.0 mi WSW 4.6 mph - N/A   Overcast
9:14 PM 75.7 °F - 65.8 °F 71% 29.87 in 10.0 mi Calm Calm - N/A   Mostly Cloudy
9:35 PM 75.6 °F - 65.7 °F 71% 29.86 in 10.0 mi Calm Calm - N/A   Scattered Clouds
9:55 PM 74.5 °F - 66.0 °F 75% 29.88 in 10.0 mi NNW 6.9 mph - N/A   Scattered Clouds
10:14 PM 75.2 °F - 65.5 °F 72% 29.86 in 10.0 mi West 5.8 mph - N/A   Scattered Clouds
10:35 PM 75.2 °F - 65.7 °F 72% 29.90 in 10.0 mi WNW 5.8 mph - N/A   Scattered Clouds
10:55 PM 74.3 °F - 66.2 °F 76% 29.90 in 10.0 mi West 5.8 mph - N/A   Scattered Clouds
11:15 PM 73.8 °F - 66.2 °F 77% 29.90 in 10.0 mi WSW 5.8 mph - N/A   Scattered Clouds
11:35 PM 75.7 °F - 65.3 °F 70% 29.89 in 10.0 mi West 5.8 mph - N/A   Mostly Cloudy
11:55 PM 74.7 °F - 65.3 °F 73% 29.90 in 10.0 mi WNW 4.6 mph - N/A   Scattered Clouds